New York, NY

3:56 PM EST on December 09, 2019 (GMT -0500)
La Guardia

Weather History for KLGA - October, 2019

Change the Weather History Date:

Monday, October 28, 2019

  Actual Average Record
Temperature  
Mean Temperature 58 °F 54 °F  
Max Temperature 63 °F 61 °F 80 °F (1984)
Min Temperature 54 °F 47 °F 33 °F (1976)
Degree Days  
Heating Degree Days 6 11  
Month to date heating degree days 133 202  
Since 1 July heating degree days 136 237  
Cooling Degree Days 0 0  
Month to date cooling degree days 29 20  
Year to date cooling degree days 1484 1210  
Growing Degree Days 8 (Base 50)    
Moisture  
Dew Point 49 °F    
Average Humidity 71    
Maximum Humidity 93    
Minimum Humidity 56    
Precipitation  
Precipitation 0.00 in 0.12 in 2.84 in (1953)
Month to date precipitation 5.05 3.44  
Year to date precipitation 41.53 37.42  
Snow  
Snow 0.00 in 0.00 in T in (2011)
Month to date snowfall 0.0 0.0  
Since 1 July snowfall 0.0 0.0  
Snow Depth 0.00 in    
Sea Level Pressure  
Sea Level Pressure 30.15 in    
Wind  
Wind Speed 9 mph ()    
Max Wind Speed 17 mph    
Max Gust Speed 24 mph    
Visibility 10.0 miles    
Events      
T = Trace of Precipitation, MM = Missing Value Source: Averaged Metar Reports

Daily Weather History Graph

Daily Weather History Graph

Search for Another Location

Airport or City:

Astronomy

Oct. 28, 2019 Rise Set
Actual Time 7:20 AM EDT 5:56 PM EDT
Civil Twilight 6:52 AM EDT 6:25 PM EDT
Nautical Twilight 6:20 AM EDT 6:57 PM EDT
Astronomical Twilight 5:48 AM EDT 7:29 PM EDT
Moon 7:39 AM EDT (10/28) 6:40 PM EDT (10/28)
Length of Visible Light 11h 32m
Length of Day
10h 35m
New Moon, 0% of the Moon is Illuminated
Oct 28
New Moon
Nov 4
First Quarter
Nov 12
Full
Nov 19
Last Quarter
Nov 26
New

Hourly Weather History & Observations

Time (EDT) Temp. Dew Point Humidity Pressure Visibility Wind Dir Wind Speed Gust Speed Precip Events Conditions
12:51 AM 57.9 °F 55.0 °F 90% 29.91 in 10.0 mi NW 5.8 mph - N/A   Partly Cloudy
1:51 AM 57.9 °F 51.1 °F 78% 29.93 in 10.0 mi NW 12.7 mph - N/A   Clear
2:51 AM 57.9 °F 48.9 °F 72% 29.95 in 10.0 mi WNW 12.7 mph - N/A   Clear
3:51 AM 57.0 °F 48.9 °F 74% 29.98 in 10.0 mi NW 10.4 mph - N/A   Clear
4:51 AM 57.9 °F 48.9 °F 72% 30.01 in 10.0 mi NNW 9.2 mph - N/A   Clear
5:51 AM 57.9 °F 48.0 °F 70% 30.04 in 10.0 mi NNW 11.5 mph - N/A   Scattered Clouds
6:51 AM 57.9 °F 48.0 °F 70% 30.08 in 10.0 mi NNW 6.9 mph - N/A   Mostly Cloudy
7:51 AM 57.9 °F 48.0 °F 70% 30.11 in 10.0 mi NNW 6.9 mph - N/A   Scattered Clouds
8:51 AM 57.0 °F 48.9 °F 74% 30.15 in 10.0 mi NNE 9.2 mph - N/A   Mostly Cloudy
9:51 AM 59.0 °F 48.9 °F 69% 30.17 in 10.0 mi NNE 12.7 mph - N/A   Mostly Cloudy
10:51 AM 60.1 °F 48.9 °F 67% 30.18 in 10.0 mi NE 11.5 mph - N/A   Scattered Clouds
11:16 AM 60.1 °F 48.9 °F 67% 30.18 in 10.0 mi ENE 11.5 mph - N/A   Mostly Cloudy
11:51 AM 62.1 °F 48.0 °F 60% 30.19 in 10.0 mi NE 15.0 mph 24.2 mph N/A   Mostly Cloudy
12:51 PM 62.1 °F 46.9 °F 58% 30.20 in 10.0 mi ENE 16.1 mph - N/A   Mostly Cloudy
1:51 PM 61.0 °F 46.9 °F 60% 30.19 in 10.0 mi ENE 10.4 mph - N/A   Mostly Cloudy
2:51 PM 62.1 °F 46.9 °F 58% 30.19 in 10.0 mi NE 6.9 mph - N/A   Mostly Cloudy
3:51 PM 61.0 °F 46.0 °F 58% 30.20 in 10.0 mi NE 6.9 mph - N/A   Mostly Cloudy
4:51 PM 61.0 °F 48.0 °F 62% 30.21 in 10.0 mi NE 5.8 mph - N/A   Mostly Cloudy
5:51 PM 61.0 °F 48.9 °F 64% 30.22 in 10.0 mi NE 6.9 mph - N/A   Mostly Cloudy
6:51 PM 57.9 °F 51.1 °F 78% 30.25 in 10.0 mi SSE 9.2 mph - N/A   Mostly Cloudy
7:51 PM 57.0 °F 50.0 °F 77% 30.26 in 10.0 mi SE 10.4 mph - N/A   Mostly Cloudy
8:06 PM 57.0 °F 50.0 °F 77% 30.25 in 10.0 mi SE 10.4 mph - N/A   Mostly Cloudy
8:51 PM 57.0 °F 48.9 °F 74% 30.27 in 10.0 mi SE 10.4 mph - N/A   Mostly Cloudy
9:51 PM 55.9 °F 48.0 °F 75% 30.27 in 10.0 mi SE 10.4 mph - N/A   Scattered Clouds
10:51 PM 55.9 °F 50.0 °F 80% 30.28 in 10.0 mi SSE 12.7 mph - N/A   Mostly Cloudy
11:51 PM 55.0 °F 50.0 °F 83% 30.28 in 10.0 mi SE 6.9 mph - N/A   Overcast